Tracking 19576 objects as of 16-Feb-2019
HD Live streaming from Space Station
objects crossing your sky now

GLOBALSTAR M051

Track GLOBALSTAR M051 now!
10-day predictions
GLOBALSTAR M051 is classified as:


NORAD ID: 25853
Int'l Code: 1999-037C
Perigee: 1,955.8 km
Apogee: 1,959.7 km
Inclination: 52.0 °
Period: 126.1 minutes
Semi major axis: 8328 km
RCS: 2.464 m2 (large)
Launch date: July 10, 1999
Source: Globalstar (GLOB)
Launch site: AIR FORCE EASTERN TEST RANGE (AFETR)
aabbcc
Your satellite tracking list
Your tracking list is empty




NASA's NSSDC Master Catalog

Two Line Element Set (TLE):
1 25853U 99037C   19047.77784271 -.00000059  00000-0  31987-3 0  9991
2 25853  51.9763 219.0858 0002338 102.9496 356.0394 11.42172033868170
Source of the keplerian elements: AFSPC